Weather History for Ashtabula, OH

Change the Weather History Date:

Wednesday, November 21, 2012

  Actual Average (KYNG) Record (KYNG)
Temperature  
Mean Temperature 42 °F 40 °F  
Max Temperature 55 °F 47 °F 71 °F (1930)
Min Temperature 28 °F 33 °F 9 °F (1951)
Degree Days  
Heating Degree Days 24 26  
Month to date heating degree days 460  
Since 1 July heating degree days 1081  
Cooling Degree Days 0 0  
Month to date cooling degree days 0  
Year to date cooling degree days 544  
Moisture  
Dew Point 30 °F    
Average Humidity 72    
Maximum Humidity 89    
Minimum Humidity 30    
Precipitation  
Precipitation 0.00 in 0.12 in 0.89 in (1956)
Month to date precipitation 2.21  
Year to date precipitation 34.95  
Snow  
Snow 0.00 in 0.10 in - ()
Month to date snowfall 1.7  
Since 1 July snowfall 2.5  
Since 1 September snowfall 2.5  
Snow Depth -    
Sea Level Pressure  
Sea Level Pressure 30.23 in    
Wind  
Wind Speed 1 mph (NE)    
Max Wind Speed 5 mph    
Max Gust Speed -    
Visibility 7 miles    
Events      
T = Trace of Precipitation, MM = Missing Value Source: NWS Daily Summary

Daily Weather History Graph

Daily Weather History Graph

Search for Another Location

Airport:

Trip Planner

Search our weather history database for the weather conditions in past years. The results will help you decide how hot, cold, wet, or windy it might be!

Date:

Astronomy

Nov. 21, 2012 Rise Set
Actual Time 7:19 AM EST 4:57 PM EST
Civil Twilight 6:49 AM EST 5:27 PM EST
Nautical Twilight 6:15 AM EST 6:01 PM EST
Astronomical Twilight 5:42 AM EST 6:34 PM EST
Moon 1:18 PM EST (11/21) 12:31 AM EST (11/21)
Length of Visible Light 10h 38m
Length of Day
9h 37m
First Quarter, 61% of the Moon is Illuminated
Nov 21
First Quarter
Nov 28
Full
Dec 6
Last Quarter
Dec 13
New
Dec 20
First Quarter

Hourly Weather History & Observations

Time (EST) Temp. Windchill Dew Point Humidity Pressure Visibility Wind Dir Wind Speed Gust Speed Precip Events Conditions
12:53 AM 34.0 °F - 30.9 °F 89% 30.17 in 7.0 mi Calm Calm - N/A   Mostly Cloudy
1:53 AM 32.0 °F 28.7 °F 28.0 °F 85% 30.17 in 4.0 mi ESE 3.5 mph - N/A   Clear
2:53 AM 30.9 °F - 27.0 °F 85% 30.19 in 6.0 mi Calm Calm - N/A   Mostly Cloudy
3:53 AM 30.9 °F - 28.0 °F 89% 30.19 in 7.0 mi Calm Calm - N/A   Overcast
4:53 AM 30.0 °F - 27.0 °F 88% 30.20 in 4.0 mi Calm Calm - N/A   Scattered Clouds
5:53 AM 28.9 °F - 26.1 °F 89% 30.22 in 3.0 mi Calm Calm - N/A   Clear
6:53 AM 28.0 °F 24.2 °F 25.0 °F 88% 30.24 in 4.0 mi East 3.5 mph - N/A   Clear
7:53 AM 28.9 °F - 26.1 °F 89% 30.26 in 3.0 mi Calm Calm - N/A   Clear
8:53 AM 35.1 °F - 30.9 °F 85% 30.26 in 4.0 mi Calm Calm - N/A   Clear
9:53 AM 45.0 °F - 35.1 °F 68% 30.25 in 10.0 mi Calm Calm - N/A   Clear
10:53 AM 50.0 °F - 33.1 °F 52% 30.25 in 10.0 mi Calm Calm - N/A   Clear
11:53 AM 53.1 °F - 28.0 °F 38% 30.24 in 10.0 mi Calm Calm - N/A   Clear
12:53 PM 55.0 °F - 28.0 °F 35% 30.22 in 10.0 mi Calm Calm - N/A   Clear
1:53 PM 55.9 °F - 25.0 °F 30% 30.22 in 10.0 mi SW 4.6 mph - N/A   Clear
2:53 PM 55.9 °F - 33.1 °F 42% 30.22 in 10.0 mi NNE 4.6 mph - N/A   Clear
3:53 PM 55.0 °F - 34.0 °F 45% 30.23 in 10.0 mi North 4.6 mph - N/A   Clear
4:53 PM 48.9 °F - 34.0 °F 56% 30.24 in 10.0 mi NNW 3.5 mph - N/A   Clear
5:53 PM 42.1 °F - 35.1 °F 76% 30.24 in 10.0 mi Calm Calm - N/A   Clear
6:53 PM 37.0 °F - 32.0 °F 82% 30.24 in 8.0 mi Calm Calm - N/A   Clear
7:53 PM 35.1 °F - 30.0 °F 82% 30.25 in 8.0 mi Calm Calm - N/A   Clear
8:53 PM 33.1 °F - 28.9 °F 85% 30.25 in 6.0 mi Calm Calm - N/A   Clear
9:53 PM 33.1 °F - 30.0 °F 89% 30.24 in 5.0 mi Calm Calm - N/A   Clear
10:53 PM 32.0 °F - 28.0 °F 85% 30.23 in 6.0 mi Calm Calm - N/A   Clear